Flag for U.S.A. Weather past 2 weeks in Pensacola, Florida, U.S.A.

Now
77 °F

Clear.


Feels Like: 78 °F
Forecast: 76 / 94 °F
Wind: 10 mph from Northwest

Location: Pensacola Regional Airport

Current Time: Jul 30, 2015 at 5:14:34 AM

Latest Report: Jul 30, 2015 at 3:53 AM


Visibility: 10 mi

Pressure: 29.94 "Hg

Humidity: 90%

Dew point: 74 °F

Location of PensacolaLocation

Historic Weather in Pensacola — Graph

°F

Pensacola temperature yesterday

Maximum temperature yesterday: 97 °F (at 1:53 PM)
Minimum temperature yesterday: 78 °F (at 3:53 PM)
Average temperature yesterday: 83 °F

Past Weeks' High & Low Weather Summary

 TemperatureHumidityPressure
High97 °F (Jul 16, 3:53 PM)100% (Jul 26, 12:53 AM)30.04 "Hg (Jul 26, 12:53 AM)
Low73 °F (Jul 18, 5:53 AM)38% (Jul 27, 2:53 PM)29.85 "Hg (Jul 25, 3:53 PM)
Average84 °F74%29.96 "Hg
* Reported Jul 15 3:53 AM — Jul 30 3:53 AM, Pensacola, Weather by CustomWeather, © 2015

Note: Actual official high and low records may vary slightly from our data, if they occured in-between our weather recording intervals... More about our weather records

Advertising

Pensacola weather history for previous 24 hours

 ConditionsComfort  
Time TempWeatherWind HumidityBarometerVisibility
3:53 AM
Thu, Jul 30
77 °FClear.10 mph90%29.94 "Hg10 mi
2:53 AM78 °FClear.6 mph87%29.94 "Hg10 mi
1:53 AM78 °FPassing clouds.10 mph87%29.97 "Hg10 mi
12:53 AM78 °FClear.7 mph90%29.98 "Hg10 mi
11:53 PM
Wed, Jul 29
79 °FClear.6 mph88%29.99 "Hg10 mi
10:53 PM79 °FClear.6 mph84%29.99 "Hg10 mi
9:53 PM79 °FClear.5 mph84%29.97 "Hg10 mi
8:53 PM79 °FClear.5 mph90%29.95 "Hg10 mi
7:53 PM79 °FClear.6 mph90%29.95 "Hg10 mi
6:53 PM81 °FSunny.8 mph85%29.96 "Hg10 mi
5:53 PM81 °FLight rain. Scattered clouds.6 mph85%29.96 "Hg9 mi
4:53 PM80 °FSunny.8 mph87%29.95 "Hg10 mi
3:53 PM78 °FThundershowers. Partly sunny.7 mph90%29.96 "Hg10 mi
2:53 PM80 °FThunderstorms. Partly sunny.13 mph79%29.95 "Hg7 mi
1:53 PM97 °FScattered clouds.7 mph46%29.93 "Hg10 mi
12:53 PM94 °FScattered clouds.5 mph49%29.96 "Hg10 mi
11:53 AM94 °FSunny.10 mph54%29.99 "Hg10 mi
10:53 AM92 °FSunny.8 mph60%30.00 "Hg10 mi
9:53 AM88 °FSunny.9 mph63%30.01 "Hg10 mi
8:53 AM86 °FSunny.12 mph65%30.01 "Hg10 mi
7:53 AM83 °FSunny.9 mph70%30.01 "Hg10 mi
6:53 AM81 °FSunny.8 mph74%29.99 "Hg10 mi
5:53 AM80 °FClear.8 mph79%29.97 "Hg10 mi
Weather by CustomWeather, © 2015

See weather overviewHow to use our weather pages